Weather History for KPKD - December, 2013

Change the Weather History Date:

Thursday, December 19, 2013

  Actual Average (KADC) Record (KADC)
Temperature  
Mean Temperature 3 °F -  
Max Temperature 10 °F 20 °F - (-1)
Min Temperature -4 °F 0 °F - (-1)
Degree Days  
Heating Degree Days 62    
Moisture  
Dew Point -2 °F    
Average Humidity 80    
Maximum Humidity 87    
Minimum Humidity 66    
Precipitation  
Precipitation 0.02 in - - ()
Sea Level Pressure  
Sea Level Pressure 30.14 in    
Wind  
Wind Speed 11 mph (North)    
Max Wind Speed 15 mph    
Max Gust Speed 20 mph    
Visibility 7 miles    
Events Snow    
Averages and records for this station are not official NWS values.
T = Trace of Precipitation, MM = Missing Value Source: NWS Daily Summary

Daily Weather History Graph

Daily Weather History Graph

Search for Another Location

Airport or City:

Trip Planner

Search our weather history database for the weather conditions in past years. The results will help you decide how hot, cold, wet, or windy it might be!

Date:

Astronomy

Dec. 19, 2013 Rise Set
Actual Time 8:01 AM CST 4:33 PM CST
Civil Twilight 7:26 AM CST 5:08 PM CST
Nautical Twilight 6:47 AM CST 5:47 PM CST
Astronomical Twilight 6:10 AM CST 6:24 PM CST
Moon 7:08 PM CST (12/19) 9:13 AM CST (12/19)
Length of Visible Light 9h 42m
Length of Day
8h 31m
Waning Gibbous, 95% of the Moon is Illuminated
Dec 19
Waning Gibbous
Dec 25
Last Quarter
Jan 1
New
Jan 7
First Quarter
Jan 15
Full

Hourly Weather History & Observations

Time (CST) Temp. Windchill Dew Point Humidity Pressure Visibility Wind Dir Wind Speed Gust Speed Precip Events Conditions
12:13 AM 10.9 °F -5.4 °F 6.1 °F 81% 29.87 in 10.0 mi NNW 15.0 mph - N/A   Overcast
12:40 AM 10.0 °F -6.5 °F 5.0 °F 80% 29.87 in 10.0 mi NNW 15.0 mph - N/A   Overcast
12:53 AM 9.0 °F -5.9 °F 5.0 °F 84% 29.98 in 10.0 mi NW 11.5 mph - N/A   Overcast
1:53 AM 7.0 °F -9.8 °F 3.9 °F 87% 30.01 in 10.0 mi NNW 13.8 mph - N/A   Overcast
2:53 AM 6.1 °F -11.6 °F 3.0 °F 87% 30.05 in 9.0 mi North 15.0 mph 19.6 mph N/A   Overcast
3:53 AM 3.9 °F -12.2 °F -0.0 °F 84% 30.08 in 10.0 mi North 11.5 mph - N/A   Overcast
4:17 AM 1.9 °F -16.9 °F -2.0 °F 83% 29.99 in 10.0 mi North 15.0 mph - N/A   Scattered Clouds
4:53 AM -0.0 °F -18.7 °F -4.0 °F 83% 30.11 in 10.0 mi North 13.8 mph - N/A   Clear
5:53 AM -0.9 °F -16.4 °F -5.1 °F 83% 30.14 in 10.0 mi North 9.2 mph - N/A   Clear
6:53 AM -2.9 °F -19.8 °F -7.1 °F 82% 30.15 in 10.0 mi North 10.4 mph - N/A   Clear
7:53 AM -4.0 °F -21.2 °F -8.0 °F 83% 30.16 in 10.0 mi NNE 10.4 mph - N/A   Clear
8:53 AM -2.9 °F -19.8 °F -8.0 °F 79% 30.17 in 10.0 mi NNE 10.4 mph - N/A   Clear
9:53 AM -0.9 °F -14.1 °F -7.1 °F 75% 30.22 in 10.0 mi NNE 6.9 mph - N/A   Overcast
10:53 AM -0.0 °F -13.0 °F -6.0 °F 76% 30.24 in 10.0 mi NNE 6.9 mph - N/A   Overcast
11:53 AM 1.9 °F -11.8 °F -5.1 °F 72% 30.22 in 10.0 mi NNE 8.1 mph - N/A   Overcast
12:53 PM 3.0 °F -8.0 °F -5.1 °F 69% 30.21 in 10.0 mi Variable 5.8 mph - N/A   Overcast
1:53 PM 3.9 °F -8.2 °F -4.0 °F 70% 30.20 in 10.0 mi North 6.9 mph - N/A   Overcast
2:53 PM 5.0 °F -8.1 °F -4.0 °F 66% 30.20 in 10.0 mi North 8.1 mph - N/A   Overcast
3:53 PM 3.9 °F -9.4 °F -4.0 °F 70% 30.22 in 10.0 mi North 8.1 mph - N/A   Overcast
4:53 PM 3.9 °F -12.2 °F -5.1 °F 66% 30.22 in 10.0 mi North 11.5 mph - N/A   Overcast
5:53 PM 3.0 °F -10.5 °F -5.1 °F 69% 30.24 in 10.0 mi North 8.1 mph - N/A   Overcast
6:51 PM 1.4 °F -12.5 °F -2.2 °F 85% 30.12 in 1.8 mi North 8.1 mph - 0.00 in Snow Light Snow
6:52 PM 1.9 °F -11.8 °F -2.9 °F 80% 30.25 in 1.8 mi North 8.1 mph - 0.00 in Snow Light Snow
7:01 PM 1.9 °F -11.8 °F -2.9 °F 80% 30.12 in 1.5 mi North 8.1 mph - 0.00 in Snow Light Snow
7:20 PM 1.9 °F -11.8 °F -2.9 °F 80% 30.12 in 2.0 mi NNE 8.1 mph - 0.00 in Snow Light Snow
7:28 PM 1.9 °F -11.8 °F -2.0 °F 83% 30.12 in 1.8 mi NNE 8.1 mph - 0.00 in Snow Light Snow
7:37 PM 1.9 °F -9.2 °F -2.0 °F 83% 30.12 in 2.0 mi NNE 5.8 mph - 0.00 in Snow Light Snow
7:53 PM 3.0 °F -10.5 °F -2.0 °F 80% 30.24 in 2.5 mi NNE 8.1 mph - 0.00 in Snow Light Snow
8:53 PM 3.0 °F -9.3 °F -0.9 °F 84% 30.22 in 2.0 mi NNE 6.9 mph - 0.01 in Snow Light Snow
9:53 PM 3.0 °F -9.3 °F -0.9 °F 84% 30.23 in 2.0 mi North 6.9 mph - 0.01 in Snow Light Snow
10:00 PM 3.0 °F -6.4 °F -0.9 °F 84% 30.10 in 1.5 mi NNE 4.6 mph - 0.00 in Snow Light Snow
10:07 PM 3.0 °F -9.3 °F -0.0 °F 87% 30.10 in 1.5 mi North 6.9 mph - 0.00 in Snow Light Snow
10:21 PM 3.9 °F -5.3 °F -0.0 °F 84% 30.10 in 2.0 mi NNE 4.6 mph - 0.00 in Snow Light Snow
10:53 PM 3.9 °F -3.4 °F -0.0 °F 84% 30.20 in 3.0 mi East 3.5 mph - 0.00 in Snow Light Snow
11:53 PM 3.9 °F -5.3 °F -0.0 °F 84% 30.20 in 4.0 mi North 4.6 mph - 0.00 in Snow Light Snow